DW4915 Mazarete ES current weather conditions

sailwx.info

Wind from 323

Air temperature 11.7° C
Dewpoint 8.0° C

Last reported at 2014-Oct-21 20:36 UTC.
Time now 2014-Oct-21 21:46 UTC

Location: N 40°58' W 002°11'.
View on Google Maps.

See reports from other nearby stations

  
Tides and Currents Weather Stations Pressure Air Temp Water Temp Dewpoint Dewpoint Depression Visibility Wind Speed Wind Dir Waves Ship Positions
date/time (UTC)wind fromknots sea level pressurealtimeterstation pressurevisibilityair tempwater tempwave heightnotes
2014-Oct-21 20:36 323 11.7
2014-Oct-21 20:31 324 11.7
2014-Oct-21 20:26 323 11.7
2014-Oct-21 20:16 325 11.7
2014-Oct-21 20:11 323 11.7
2014-Oct-21 20:06 323 11.7
2014-Oct-21 19:56 323 12.2
2014-Oct-21 19:51 325 12.2
2014-Oct-21 19:41 325 12.8
2014-Oct-21 19:36 325 13.3
2014-Oct-21 19:31 324 13.3
2014-Oct-21 19:26 323 13.9
2014-Oct-21 19:21 325 14.4
2014-Oct-21 19:16 324 14.4
2014-Oct-21 19:11 323 15.0
2014-Oct-21 19:06 325 1 gusting 3 15.0
2014-Oct-21 18:56 324 2 gusting 6 15.6
2014-Oct-21 18:51 325 2 gusting 6 15.6
2014-Oct-21 18:46 323 3 gusting 4 15.0
2014-Oct-21 18:41 323 2 gusting 4 15.0
2014-Oct-21 18:31 325 15.6
2014-Oct-21 18:26 323 0 gusting 2 15.6
2014-Oct-21 18:21 324 15.6
2014-Oct-21 18:16 323 15.6
2014-Oct-21 18:11 325 1 gusting 4 16.1
2014-Oct-21 18:06 322 1 gusting 4 16.7
2014-Oct-21 18:01 323 0 gusting 3 16.7
2014-Oct-21 17:56 323 1 gusting 3 16.7
2014-Oct-21 17:51 324 0 gusting 2 16.1
2014-Oct-21 17:36 325 17.8
2014-Oct-21 17:31 323 18.3
2014-Oct-21 17:26 323 18.3
2014-Oct-21 17:16 323 2 gusting 3 18.9
2014-Oct-21 17:11 323 19.4
2014-Oct-21 17:06 325 0 gusting 3 20.0
2014-Oct-21 17:01 325 2 gusting 6 20.0
2014-Oct-21 16:56 324 3 gusting 7 20.6
2014-Oct-21 16:51 323 5 gusting 8 20.6
2014-Oct-21 16:46 312 5 gusting 13 21.1
2014-Oct-21 16:36 319 10 gusting 13 21.1
2014-Oct-21 16:31 326 11 gusting 16 21.7
2014-Oct-21 16:26 330 8 gusting 19 21.7
2014-Oct-21 16:21 328 12 gusting 16 21.7
2014-Oct-21 16:16 328 9 gusting 14 21.7
2014-Oct-21 16:11 339 9 gusting 16 22.2
2014-Oct-21 16:01 325 11 gusting 15 22.2
2014-Oct-21 15:56 314 7 gusting 13 22.2
2014-Oct-21 15:51 327 9 gusting 15 22.2
2014-Oct-21 15:46 332 11 gusting 15 22.2
2014-Oct-21 15:41 327 10 gusting 18 22.2
2014-Oct-21 15:36 335 13 gusting 18 22.8
2014-Oct-21 15:26 330 13 gusting 19 22.8
2014-Oct-21 15:21 319 12 gusting 16 22.8
2014-Oct-21 15:16 333 8 gusting 16 22.8
2014-Oct-21 15:06 304 11 gusting 15 22.8
2014-Oct-21 15:01 325 12 gusting 15 22.8
2014-Oct-21 14:36 345 11 gusting 16 23.3
2014-Oct-21 14:31 300 8 gusting 15 23.3
2014-Oct-21 14:21 337 11 gusting 14 23.3
2014-Oct-21 14:16 304 8 gusting 15 23.3
2014-Oct-21 14:06 324 13 gusting 19 23.3
2014-Oct-21 14:01 318 7 gusting 15 23.3
2014-Oct-21 13:56 285 11 gusting 21 23.3
2014-Oct-21 13:36 330 12 gusting 18 23.3
2014-Oct-21 13:31 346 8 gusting 18 23.3
2014-Oct-21 13:26 335 12 gusting 18 23.3
2014-Oct-21 13:16 329 13 gusting 17 22.8
2014-Oct-21 13:11 323 9 gusting 15 23.3
2014-Oct-21 13:06 329 12 gusting 19 23.3
2014-Oct-21 13:01 315 13 gusting 19 23.3
2014-Oct-21 12:51 335 11 gusting 17 23.3
2014-Oct-21 12:46 333 13 gusting 16 23.3
2014-Oct-21 12:41 315 10 gusting 16 23.3
2014-Oct-21 12:31 329 14 gusting 20 23.3
2014-Oct-21 12:26 333 11 gusting 15 23.3
2014-Oct-21 12:21 335 11 gusting 14 23.3
2014-Oct-21 12:11 337 9 gusting 13 23.3
2014-Oct-21 12:06 335 9 gusting 15 23.3
2014-Oct-21 12:01 329 11 gusting 19 23.3
2014-Oct-21 11:56 321 13 gusting 19 23.3
2014-Oct-21 11:51 331 8 gusting 13 22.8
2014-Oct-21 11:41 327 7 gusting 14 22.8
2014-Oct-21 11:36 327 6 gusting 14 22.8
2014-Oct-21 11:26 339 6 gusting 14 22.2
2014-Oct-21 11:21 337 6 gusting 14 22.2
2014-Oct-21 11:16 308 9 gusting 13 22.2
2014-Oct-21 11:06 293 8 gusting 11 22.2
2014-Oct-21 10:56 281 5 gusting 10 21.7
2014-Oct-21 10:51 279 6 gusting 10 21.7
2014-Oct-21 10:46 247 2 gusting 6 21.7
2014-Oct-21 10:41 245 2 gusting 10 21.7
2014-Oct-21 10:36 246 6 gusting 10 21.7
2014-Oct-21 10:26 225 1 gusting 5 21.1
2014-Oct-21 10:21 221 2 gusting 5 21.1
2014-Oct-21 10:11 225 20.6
2014-Oct-21 10:06 226 20.6
2014-Oct-21 10:01 225 20.0
2014-Oct-21 09:56 225 19.4
2014-Oct-21 09:51 225 18.9
2014-Oct-21 09:46 225 18.3
2014-Oct-21 09:36 225 18.3
2014-Oct-21 09:31 225 18.3
2014-Oct-21 09:26 225 2 gusting 4 18.3
2014-Oct-21 09:21 225 2 gusting 4 17.8
2014-Oct-21 09:16 225 1 gusting 4 17.8
2014-Oct-21 09:11 225 2 gusting 4 17.8
2014-Oct-21 09:06 227 17.8
2014-Oct-21 08:56 227 1 gusting 4 17.2
2014-Oct-21 08:51 225 17.2
2014-Oct-21 08:46 226 16.1
2014-Oct-21 08:41 225 15.6
2014-Oct-21 08:36 226 14.4
2014-Oct-21 08:31 226 13.9
2014-Oct-21 08:26 225 13.3
2014-Oct-21 08:21 225 12.8
2014-Oct-21 08:16 226 12.2
2014-Oct-21 08:11 225 12.2
2014-Oct-21 08:01 225 0 gusting 3 11.1
2014-Oct-21 07:56 225 0 gusting 3 10.6
2014-Oct-21 07:51 226 10.6
2014-Oct-21 07:41 221 10.0
2014-Oct-21 07:36 227 10.0
2014-Oct-21 07:31 225 9.4
2014-Oct-21 07:26 225 9.4
2014-Oct-21 07:16 225 8.9
2014-Oct-21 07:11 225 8.3
2014-Oct-21 07:06 225 7.8
2014-Oct-21 06:56 225 7.8
2014-Oct-21 06:51 225 7.8
2014-Oct-21 06:46 225 7.8
2014-Oct-21 06:36 225 7.8
2014-Oct-21 06:31 225 7.8
2014-Oct-21 06:16 225 7.2
2014-Oct-21 06:11 226 7.2
2014-Oct-21 06:06 225 7.2
2014-Oct-21 06:01 225 0 gusting 3 7.2
2014-Oct-21 05:46 225 7.8
2014-Oct-21 05:41 225 7.8
2014-Oct-21 05:36 226 0 gusting 3 7.8
2014-Oct-21 05:31 226 7.8
2014-Oct-21 05:26 225 7.2
2014-Oct-21 05:21 225 7.2
2014-Oct-21 05:16 225 6.7
2014-Oct-21 05:11 225 6.7
2014-Oct-21 05:06 226 6.7
2014-Oct-21 04:56 221 6.1
2014-Oct-21 04:51 225 6.1
2014-Oct-21 04:46 225 6.1
2014-Oct-21 04:41 225 6.1
2014-Oct-21 04:36 225 6.7
2014-Oct-21 04:31 221 6.7
2014-Oct-21 04:26 225 6.7
2014-Oct-21 04:21 226 6.7
2014-Oct-21 04:16 225 6.7
2014-Oct-21 04:11 225 6.7
2014-Oct-21 04:01 226 6.7
2014-Oct-21 03:56 225 0 gusting 1 6.7
2014-Oct-21 03:51 226 6.7
2014-Oct-21 03:46 225 6.7
2014-Oct-21 03:36 226 6.7
2014-Oct-21 03:31 225 6.1
2014-Oct-21 03:26 226 6.1
2014-Oct-21 03:21 225 6.1
2014-Oct-21 03:16 225 6.1
2014-Oct-21 03:11 225 6.1
2014-Oct-21 03:06 225 6.7
2014-Oct-21 03:01 225 6.7
2014-Oct-21 02:56 225 6.1
2014-Oct-21 02:46 226 5.6
2014-Oct-21 02:41 226 5.6
2014-Oct-21 02:36 225 5.6
2014-Oct-21 02:31 225 5.6
2014-Oct-21 02:26 225 5.6
2014-Oct-21 02:21 225 5.6
2014-Oct-21 02:16 225 5.6
2014-Oct-21 02:06 225 5.6
2014-Oct-21 02:01 225 5.6
2014-Oct-21 01:56 226 5.6
2014-Oct-21 01:46 225 5.6
2014-Oct-21 01:41 225 5.6
2014-Oct-21 01:36 225 5.6
2014-Oct-21 01:31 225 5.6
2014-Oct-21 01:21 225 6.1
2014-Oct-21 01:16 225 6.1
2014-Oct-21 01:06 225 6.1
2014-Oct-21 01:01 225 6.1
2014-Oct-21 00:56 225 6.1
2014-Oct-21 00:51 225 6.1
2014-Oct-21 00:46 225 6.1
2014-Oct-21 00:36 225 6.1
2014-Oct-21 00:31 225 6.1
2014-Oct-21 00:26 226 6.7
2014-Oct-21 00:21 225 6.7
2014-Oct-21 00:11 225 6.1
2014-Oct-21 00:06 225 6.1
2014-Oct-21 00:01 225 6.1
2014-Oct-20 23:51 226 6.1
2014-Oct-20 23:46 227 6.1
2014-Oct-20 23:41 225 6.1
2014-Oct-20 23:36 225 6.1
2014-Oct-20 23:26 225 6.1
2014-Oct-20 23:21 227 6.1
2014-Oct-20 23:16 225 6.7
2014-Oct-20 23:11 225 6.7
2014-Oct-20 23:06 225 6.7
2014-Oct-20 23:01 225 6.7
2014-Oct-20 22:51 225 6.7
2014-Oct-20 22:46 225 6.7
2014-Oct-20 22:41 225 6.7
2014-Oct-20 22:31 225 6.7
2014-Oct-20 22:26 226 6.7
2014-Oct-20 22:21 226 6.7
2014-Oct-20 22:16 225 6.7
2014-Oct-20 22:11 225 6.7
2014-Oct-20 22:06 226 6.7
2014-Oct-20 22:01 225 6.7
2014-Oct-20 21:56 226 6.7
2014-Oct-20 21:51 227 6.7
2014-Oct-20 21:46 225 6.7
2014-Oct-20 21:41 225 6.7
2014-Oct-20 21:31 226 7.2
2014-Oct-20 21:21 225 7.2
2014-Oct-20 21:11 226 7.2
2014-Oct-20 21:06 225 7.2
2014-Oct-20 21:01 225 7.2
2014-Oct-20 20:56 226 7.2
2014-Oct-20 20:51 226 7.2
2014-Oct-20 20:46 225 7.2
2014-Oct-20 20:41 225 7.8
2014-Oct-20 20:36 226 7.8
2014-Oct-20 20:31 227 7.8
2014-Oct-20 20:26 226 7.8
2014-Oct-20 20:16 225 7.8
2014-Oct-20 20:01 226 8.3
2014-Oct-20 19:51 225 8.3
2014-Oct-20 19:46 225 8.3
2014-Oct-20 19:41 225 8.3
2014-Oct-20 19:36 225 8.3
2014-Oct-20 19:31 225 8.9
2014-Oct-20 19:21 225 8.9
2014-Oct-20 19:06 225 8.9
2014-Oct-20 19:01 225 9.4
2014-Oct-20 18:56 226 9.4
2014-Oct-20 18:51 225 9.4
2014-Oct-20 18:46 225 9.4
2014-Oct-20 18:41 228 10.0
2014-Oct-20 18:36 226 10.0
2014-Oct-20 18:31 225 10.6
2014-Oct-20 18:26 226 10.6
2014-Oct-20 18:21 226 11.1
2014-Oct-20 18:06 226 12.2
2014-Oct-20 18:01 226 12.8
2014-Oct-20 17:56 226 13.3
2014-Oct-20 17:51 226 13.9
2014-Oct-20 17:46 225 14.4
2014-Oct-20 17:36 225 15.6
2014-Oct-20 17:31 226 16.1
2014-Oct-20 17:26 225 16.7
2014-Oct-20 17:21 221 17.2
2014-Oct-20 17:16 225 18.3
2014-Oct-20 17:11 225 18.9
2014-Oct-20 17:06 226 20.0
2014-Oct-20 16:56 226 21.7
2014-Oct-20 16:51 225 22.2
2014-Oct-20 16:46 226 22.8
2014-Oct-20 16:36 225 23.3
2014-Oct-20 16:31 226 23.3
2014-Oct-20 16:26 225 23.3
2014-Oct-20 16:21 227 23.3
2014-Oct-20 16:11 226 23.3
2014-Oct-20 16:06 225 23.3
2014-Oct-20 15:56 225 23.3
2014-Oct-20 15:51 225 3 gusting 4 23.9
2014-Oct-20 15:46 225 23.9
2014-Oct-20 15:36 225 0 gusting 4 24.4
2014-Oct-20 15:31 226 23.9
2014-Oct-20 15:21 226 2 gusting 4 23.9
2014-Oct-20 15:16 225 2 gusting 4 23.9
2014-Oct-20 15:11 227 2 gusting 5 23.9
2014-Oct-20 15:06 225 3 gusting 6 23.9
2014-Oct-20 15:01 221 4 gusting 6 23.9
2014-Oct-20 14:56 225 2 gusting 5 23.9
2014-Oct-20 14:51 225 2 gusting 5 23.9
2014-Oct-20 14:46 225 2 gusting 6 23.3
2014-Oct-20 14:41 225 4 gusting 5 23.9
2014-Oct-20 14:36 225 1 gusting 4 23.9
2014-Oct-20 14:31 225 2 gusting 5 23.9
2014-Oct-20 14:26 225 2 gusting 5 23.9
2014-Oct-20 14:16 225 2 gusting 5 23.9
2014-Oct-20 14:11 225 2 gusting 4 23.9
2014-Oct-20 14:06 221 2 gusting 6 23.9
2014-Oct-20 14:01 225 2 gusting 6 23.9
2014-Oct-20 13:56 226 2 gusting 5 23.9
2014-Oct-20 13:51 226 2 gusting 6 23.3
2014-Oct-20 13:41 225 1 gusting 4 23.3
2014-Oct-20 13:26 226 1 gusting 6 23.3
2014-Oct-20 13:21 225 4 gusting 6 23.9
2014-Oct-20 13:16 225 3 gusting 5 23.9
2014-Oct-20 13:11 225 23.9
2014-Oct-20 13:01 226 0 gusting 6 23.9
2014-Oct-20 12:56 227 23.3
2014-Oct-20 12:51 225 1 gusting 5 23.3
2014-Oct-20 12:46 225 0 gusting 5 23.3
2014-Oct-20 12:41 225 2 gusting 6 22.8
2014-Oct-20 12:36 226 4 gusting 6 22.8
2014-Oct-20 12:31 227 4 gusting 6 22.8
2014-Oct-20 12:21 225 4 gusting 6 22.8
2014-Oct-20 12:16 226 4 gusting 6 22.8
2014-Oct-20 12:11 225 3 gusting 7 22.2
2014-Oct-20 12:01 225 5 gusting 8 22.2
2014-Oct-20 11:56 225 6 gusting 8 22.2
2014-Oct-20 11:51 225 4 gusting 7 22.2
2014-Oct-20 11:46 225 6 gusting 8 22.2
2014-Oct-20 11:41 225 4 gusting 8 22.2
2014-Oct-20 11:36 216 4 gusting 8 22.2
2014-Oct-20 11:31 211 5 gusting 8 22.2
2014-Oct-20 11:26 204 4 gusting 6 22.2
2014-Oct-20 11:16 204 4 gusting 7 22.2
2014-Oct-20 11:11 205 4 gusting 7 22.2
2014-Oct-20 11:01 204 4 gusting 7 21.7
2014-Oct-20 10:56 216 4 gusting 8 21.7
2014-Oct-20 10:51 225 6 gusting 8 21.7
2014-Oct-20 10:46 221 3 gusting 7 21.1
2014-Oct-20 10:36 225 5 gusting 8 21.1
2014-Oct-20 10:31 211 5 gusting 8 21.1
2014-Oct-20 10:26 228 4 gusting 7 21.1
2014-Oct-20 10:16 211 4 gusting 7 21.1
2014-Oct-20 10:11 179 3 gusting 7 21.1
2014-Oct-20 10:06 179 5 gusting 7 20.6
2014-Oct-20 09:56 181 2 gusting 7 20.6
2014-Oct-20 09:51 179 5 gusting 7 20.0
2014-Oct-20 09:46 179 4 gusting 8 20.0
2014-Oct-20 09:36 181 4 gusting 6 20.0
2014-Oct-20 09:31 181 3 gusting 6 19.4
2014-Oct-20 09:26 183 5 gusting 6 19.4
2014-Oct-20 09:16 216 3 gusting 6 18.9
2014-Oct-20 09:11 216 4 gusting 6 18.9
2014-Oct-20 09:06 216 3 gusting 6 18.3
2014-Oct-20 09:01 216 4 gusting 6 18.3
2014-Oct-20 08:56 216 3 gusting 5 18.3
2014-Oct-20 08:51 216 3 gusting 7 18.3
2014-Oct-20 08:41 216 2 gusting 4 17.2
2014-Oct-20 08:36 216 2 gusting 4 16.7
2014-Oct-20 08:31 216 0 gusting 3 15.6
2014-Oct-20 08:21 216 13.9
2014-Oct-20 08:16 216 13.3
2014-Oct-20 08:11 216 12.8
2014-Oct-20 08:06 216 11.7
2014-Oct-20 08:01 216 11.1
2014-Oct-20 07:46 216 9.4
2014-Oct-20 07:41 216 8.9
2014-Oct-20 07:36 216 7.8
2014-Oct-20 07:31 216 7.2
2014-Oct-20 07:21 216 6.1
2014-Oct-20 07:16 216 5.6
2014-Oct-20 07:11 216 5.0
2014-Oct-20 07:06 216 4.4
2014-Oct-20 07:01 216 3.9
2014-Oct-20 06:56 216 3.9
2014-Oct-20 06:51 216 3.9
2014-Oct-20 06:41 216 3.9
2014-Oct-20 06:36 216 3.9
2014-Oct-20 06:26 216 3.9
2014-Oct-20 06:21 216 3.9
2014-Oct-20 06:11 216 3.9
2014-Oct-20 06:06 216 3.9
2014-Oct-20 06:01 216 3.9
2014-Oct-20 05:56 216 3.9
2014-Oct-20 05:51 216 3.9
2014-Oct-20 05:41 216 3.9
2014-Oct-20 05:36 216 3.9
2014-Oct-20 05:31 216 4.4
2014-Oct-20 05:26 216 4.4
2014-Oct-20 05:16 216 4.4
2014-Oct-20 05:11 216 4.4
2014-Oct-20 05:06 216 5.0
2014-Oct-20 05:01 216 5.0
2014-Oct-20 04:51 216 5.0
2014-Oct-20 04:46 216 5.0
2014-Oct-20 04:41 216 5.6
2014-Oct-20 04:31 216 5.6
2014-Oct-20 04:26 216 5.6
2014-Oct-20 04:21 216 5.6
2014-Oct-20 04:11 216 5.6
2014-Oct-20 04:06 216 5.6
2014-Oct-20 04:01 216 5.6
2014-Oct-20 03:56 216 5.6
2014-Oct-20 03:51 216 5.6
2014-Oct-20 03:46 216 5.6
2014-Oct-20 03:41 216 5.6
2014-Oct-20 03:36 216 6.1
2014-Oct-20 03:26 216 6.1
2014-Oct-20 03:21 216 6.1
2014-Oct-20 03:16 216 6.1
2014-Oct-20 03:06 216 6.7
2014-Oct-20 03:01 216 6.7
2014-Oct-20 02:56 216 6.7
2014-Oct-20 02:51 216 6.7
2014-Oct-20 02:41 216 7.2
2014-Oct-20 02:36 216 7.2
2014-Oct-20 02:31 216 7.2
2014-Oct-20 02:21 216 7.2
2014-Oct-20 02:16 216 7.2
2014-Oct-20 02:11 216 7.2
2014-Oct-20 02:06 216 7.2
2014-Oct-20 01:56 216 7.8
2014-Oct-20 01:51 216 7.8
2014-Oct-20 01:41 216 7.8
2014-Oct-20 01:36 216 7.8
2014-Oct-20 01:31 216 7.8
2014-Oct-20 01:26 216 7.8
2014-Oct-20 01:16 216 7.2
2014-Oct-20 01:11 216 7.2
2014-Oct-20 01:06 216 7.2
2014-Oct-20 01:01 216 7.2
2014-Oct-20 00:51 216 7.2
2014-Oct-20 00:46 216 7.8
2014-Oct-20 00:41 216 7.8
2014-Oct-20 00:31 216 7.8
2014-Oct-20 00:26 216 7.8
2014-Oct-20 00:21 216 7.8
2014-Oct-20 00:16 216 7.8
2014-Oct-20 00:06 216 7.8
2014-Oct-20 00:01 216 0 gusting 2 7.8
2014-Oct-19 23:56 216 7.8
2014-Oct-19 23:46 216 7.8
2014-Oct-19 23:36 216 7.8
2014-Oct-19 23:31 216 7.8
2014-Oct-19 23:26 216 7.8
2014-Oct-19 23:21 216 7.8
2014-Oct-19 23:16 216 7.8
2014-Oct-19 23:11 216 7.8
2014-Oct-19 23:06 216 8.3
2014-Oct-19 22:56 216 8.3
2014-Oct-19 22:46 216 8.3
2014-Oct-19 22:41 216 8.3
2014-Oct-19 22:31 216 8.3
2014-Oct-19 22:26 216 8.3
2014-Oct-19 22:21 216 8.3
2014-Oct-19 22:16 216 8.3
2014-Oct-19 22:06 216 8.3
2014-Oct-19 22:01 216 8.3
2014-Oct-19 21:56 216 8.3
2014-Oct-19 21:46 216 8.9
2014-Oct-19 21:41 216 8.9
2014-Oct-19 21:36 216 8.9
2014-Oct-19 21:26 216 8.9
2014-Oct-19 21:21 216 8.9
2014-Oct-19 21:16 216 8.9
2014-Oct-19 21:06 216 8.9
2014-Oct-19 21:01 216 8.9